Des Moines, IA

1:58 PM CDT on July 25, 2016 (GMT -0500)
Des Moines International

Weather History for KDSM - April, 2012

Change the Weather History Date:

Friday, April 6, 2012

  Actual Average Record
Temperature  
Mean Temperature 51 °F 48 °F  
Max Temperature 63 °F 59 °F 88 °F (1991)
Min Temperature 38 °F 37 °F 10 °F (1982)
Degree Days  
Heating Degree Days 14 17  
Month to date heating degree days 30 109  
Since 1 July heating degree days 4406 5736  
Cooling Degree Days 0 0  
Month to date cooling degree days 14 0  
Year to date cooling degree days 48 1  
Moisture  
Dew Point 31 °F    
Average Humidity 51    
Maximum Humidity 70    
Minimum Humidity 32    
Precipitation  
Precipitation 0.00 in 0.10 in 1.56 in (1938)
Month to date precipitation 0.00 0.59  
Year to date precipitation 3.94 5.17  
Snow  
Snow 0.00 in 0.10 in 2.00 in (2003)
Month to date snowfall 0.0 0.6  
Since 1 July snowfall 20.9 34.1  
Snow Depth 0.00 in    
Sea Level Pressure  
Sea Level Pressure 30.17 in    
Wind  
Wind Speed 11 mph (ESE)    
Max Wind Speed 20 mph    
Max Gust Speed 25 mph    
Visibility 10 miles    
Events      
T = Trace of Precipitation, MM = Missing Value Source: NWS Daily Summary

Daily Weather History Graph

Daily Weather History Graph

Search for Another Location

Airport or City:

Trip Planner

Search our weather history database for the weather conditions in past years. The results will help you decide how hot, cold, wet, or windy it might be!

Date:

Astronomy

Apr. 06, 2012 Rise Set
Actual Time 6:48 AM CDT 7:45 PM CDT
Civil Twilight 6:20 AM CDT 8:14 PM CDT
Nautical Twilight 5:46 AM CDT 8:47 PM CDT
Astronomical Twilight 5:11 AM CDT 9:23 PM CDT
Moon 8:07 PM CDT (4/6) 6:20 AM CDT (4/6)
Length of Visible Light 13h 53m
Length of Day
12h 57m
Full, 100% of the Moon is Illuminated
Apr 6
Full
Apr 6
Full
Apr 13
Last Quarter
Apr 21
New
Apr 29
First Quarter

Hourly Weather History & Observations

Time (CDT) Temp. Windchill Dew Point Humidity Pressure Visibility Wind Dir Wind Speed Gust Speed Precip Events Conditions
12:54 AM 48.0 °F - 30.0 °F 50% 30.16 in 10.0 mi East 6.9 mph - N/A   Partly Cloudy
1:54 AM 46.9 °F - 30.0 °F 52% 30.16 in 10.0 mi East 10.4 mph - N/A   Clear
2:54 AM 44.6 °F 40.2 °F 30.2 °F 57% 30.18 in 10.0 mi East 8.1 mph - N/A   Clear
3:54 AM 43.0 °F 38.8 °F 30.0 °F 60% 30.19 in 10.0 mi East 6.9 mph - N/A   Clear
4:54 AM 41.0 °F 36.4 °F 30.0 °F 65% 30.19 in 10.0 mi East 6.9 mph - N/A   Clear
5:54 AM 39.9 °F 37.8 °F 30.0 °F 68% 30.20 in 10.0 mi East 3.5 mph - N/A   Clear
6:54 AM 37.9 °F 32.7 °F 28.9 °F 70% 30.22 in 10.0 mi East 6.9 mph - N/A   Partly Cloudy
7:54 AM 39.9 °F 36.7 °F 28.9 °F 65% 30.25 in 10.0 mi East 4.6 mph - N/A   Clear
8:54 AM 43.0 °F 37.7 °F 28.0 °F 56% 30.27 in 10.0 mi SE 9.2 mph - N/A   Partly Cloudy
9:54 AM 45.0 °F 39.7 °F 28.9 °F 53% 30.27 in 10.0 mi ESE 10.4 mph - N/A   Partly Cloudy
10:54 AM 50.0 °F - 30.9 °F 48% 30.26 in 10.0 mi SE 8.1 mph - N/A   Partly Cloudy
11:54 AM 53.1 °F - 30.9 °F 43% 30.25 in 10.0 mi SE 10.4 mph - N/A   Partly Cloudy
12:54 PM 55.9 °F - 30.9 °F 39% 30.22 in 10.0 mi SE 12.7 mph 19.6 mph N/A   Mostly Cloudy
1:54 PM 59.0 °F - 32.0 °F 36% 30.19 in 10.0 mi SSE 13.8 mph 17.3 mph N/A   Mostly Cloudy
2:54 PM 60.1 °F - 32.0 °F 35% 30.16 in 10.0 mi SSE 12.7 mph - N/A   Mostly Cloudy
3:54 PM 62.1 °F - 32.0 °F 32% 30.13 in 10.0 mi SE 18.4 mph 23.0 mph N/A   Overcast
4:54 PM 61.0 °F - 30.9 °F 32% 30.11 in 10.0 mi SSE 15.0 mph - N/A   Mostly Cloudy
5:54 PM 62.1 °F - 33.1 °F 34% 30.09 in 10.0 mi SSE 16.1 mph - N/A   Mostly Cloudy
6:54 PM 59.0 °F - 32.0 °F 36% 30.10 in 10.0 mi SE 17.3 mph - N/A   Mostly Cloudy
7:54 PM 57.0 °F - 32.0 °F 39% 30.09 in 10.0 mi SE 11.5 mph - N/A   Scattered Clouds
8:54 PM 55.0 °F - 33.1 °F 43% 30.09 in 10.0 mi SE 12.7 mph - N/A   Scattered Clouds
9:54 PM 54.0 °F - 33.1 °F 45% 30.10 in 10.0 mi SE 12.7 mph - N/A   Mostly Cloudy
10:54 PM 52.0 °F - 34.0 °F 50% 30.10 in 10.0 mi SE 12.7 mph - N/A   Mostly Cloudy
11:54 PM 50.0 °F - 34.0 °F 54% 30.12 in 10.0 mi SSE 10.4 mph - N/A   Partly Cloudy